Ft Riley, KS

3:34 AM CDT on October 19, 2017 (GMT -0500)
Marshall Army Air Field

Weather History for KFRI - June, 2013

Change the Weather History Date:

Wednesday, June 26, 2013

  Actual Average (KMHK) Record (KMHK)
Temperature  
Mean Temperature 83 °F -  
Max Temperature 96 °F 86 °F 99 °F (2002)
Min Temperature 70 °F 62 °F 48 °F (2003)
Cooling Degree Days 18    
Growing Degree Days 33 (Base 50)    
Moisture  
Dew Point 69 °F    
Average Humidity 63    
Maximum Humidity 100    
Minimum Humidity 31    
Precipitation  
Precipitation 0.00 in - - ()
Sea Level Pressure  
Sea Level Pressure 29.81 in    
Wind  
Wind Speed 7 mph (East)    
Max Wind Speed 12 mph    
Max Gust Speed -    
Visibility 10 miles    
Events      
Averages and records for this station are not official NWS values.
T = Trace of Precipitation, MM = Missing Value Source: NWS Daily Summary

Daily Weather History Graph

Daily Weather History Graph

Search for Another Location

Airport or City:

Trip Planner

Search our weather history database for the weather conditions in past years. The results will help you decide how hot, cold, wet, or windy it might be!

Date:

Astronomy

Jun. 26, 2013 Rise Set
Actual Time 6:02 AM CDT 8:56 PM CDT
Civil Twilight 5:30 AM CDT 9:29 PM CDT
Nautical Twilight 4:50 AM CDT 10:09 PM CDT
Astronomical Twilight 4:03 AM CDT 10:56 PM CDT
Moon 11:23 PM CDT (6/26) 9:54 AM CDT (6/26)
Length of Visible Light 15h 58m
Length of Day
14h 54m
Waning Gibbous, 85% of the Moon is Illuminated
Jun 26
Waning Gibbous
Jun 29
Last Quarter
Jul 8
New
Jul 15
First Quarter
Jul 22
Full

Hourly Weather History & Observations

Time (CDT) Temp. Heat Index Dew Point Humidity Pressure Visibility Wind Dir Wind Speed Gust Speed Precip Events Conditions
12:58 AM 81.0 °F 85.4 °F 72.3 °F 75% 29.71 in 10.0 mi SW 11.5 mph - N/A   Clear
1:58 AM 79.0 °F - 72.5 °F 80% 29.71 in 10.0 mi WSW 9.2 mph - N/A   Clear
2:58 AM 77.7 °F - 72.7 °F 84% 29.72 in 10.0 mi SW 5.8 mph - N/A   Clear
3:58 AM 75.7 °F - 72.7 °F 90% 29.72 in 10.0 mi SW 5.8 mph - N/A   Clear
4:58 AM 73.9 °F - 73.8 °F 99% 29.73 in 10.0 mi South 3.5 mph - N/A   Clear
5:58 AM 72.1 °F - 72.1 °F 100% 29.76 in 10.0 mi SSW 4.6 mph - N/A   Clear
6:58 AM 70.9 °F - 70.9 °F 100% 29.78 in 10.0 mi SW 4.6 mph - N/A   Clear
7:58 AM 76.5 °F - 74.8 °F 95% 29.82 in 10.0 mi SW 4.6 mph - N/A   Clear
8:58 AM 80.4 °F 84.5 °F 72.3 °F 76% 29.82 in 10.0 mi WSW 4.6 mph - N/A   Clear
9:58 AM 85.6 °F 88.8 °F 68.0 °F 55% 29.83 in 10.0 mi Variable 5.8 mph - N/A   Clear
10:58 AM 87.8 °F 92.2 °F 69.1 °F 54% 29.83 in 10.0 mi NNE 5.8 mph - N/A   Clear
11:58 AM 90.1 °F 94.4 °F 68.7 °F 49% 29.84 in 10.0 mi NNE 8.1 mph - N/A   Clear
12:58 PM 92.7 °F 98.3 °F 70.0 °F 47% 29.84 in 10.0 mi NNE 9.2 mph - N/A   Clear
1:58 PM 93.7 °F 96.7 °F 65.8 °F 40% 29.83 in 10.0 mi NNE 8.1 mph - N/A   Partly Cloudy
2:58 PM 96.4 °F 97.0 °F 61.0 °F 31% 29.82 in 10.0 mi North 8.1 mph - N/A   Clear
3:58 PM 95.4 °F 96.6 °F 62.6 °F 34% 29.82 in 10.0 mi NNE 8.1 mph - N/A   Clear
4:58 PM 96.4 °F 98.4 °F 63.7 °F 34% 29.82 in 10.0 mi NNE 6.9 mph - N/A   Clear
5:48 PM 95.0 °F 97.0 °F 64.4 °F 36% 29.85 in 10.0 mi Calm Calm - N/A   Light Drizzle
5:58 PM 95.4 °F 98.1 °F 65.5 °F 37% 29.81 in 10.0 mi ESE 4.6 mph - 0.00 in   Light Drizzle
6:00 PM 95.0 °F 98.5 °F 66.2 °F 39% 29.86 in 10.0 mi East 4.6 mph - N/A   Clear
6:58 PM 93.7 °F 97.2 °F 66.6 °F 41% 29.83 in 10.0 mi SE 4.6 mph - 0.00 in   Clear
7:58 PM 90.1 °F 97.3 °F 72.0 °F 55% 29.82 in 10.0 mi East 6.9 mph - N/A   Clear
8:58 PM 84.7 °F 90.7 °F 72.3 °F 66% 29.83 in 10.0 mi Calm Calm - N/A   Clear
9:58 PM 82.6 °F 87.3 °F 71.4 °F 69% 29.84 in 10.0 mi ENE 2.3 mph - N/A   Clear
10:58 PM 78.6 °F - 72.7 °F 82% 29.86 in 10.0 mi NE 5.8 mph - N/A   Clear
11:58 PM 77.4 °F - 69.6 °F 77% 29.86 in 10.0 mi NE 2.3 mph - N/A   Clear